COSMOS 2533

Last updated on Tue Sep 22 2026 00:03:14 GMT+0000 (Coordinated Universal Time)

1 43867U 18107A 26264.64550472 -.00000043 00000+0 00000+0 0 9994 2 43867 0.0157 127.2348 0000315 128.5392 47.1449 1.00275788 28411
UTC large
Height (km)
Speed (km/s)
/
Latitude / Longitude
Inclination (degrees)
Orbital Period (minutes)
Azimuth
Elevation
Range (km)
Doppler Factor

Next 0 passes for location: London (51.5072 / 0.1276)

No passes found over London.
COSMOS 2533